Location: Le Hiès Ruisseau
(43.3000°N, 0.4500°W)
Time: 01:48:47
(UTC+00:00)

Cosmos 1607 - Pass Details

Date: 28 January 2023
Orbit: 921 x 981 km, 65.0° (Epoch: 27 March)

Event Time Altitude Azimuth Distance (km) Brightness Sun altitude
Rises 18:01:14 0° 201° (SSW) 3,547 7.5 -9.9°
Reaches altitude 10° 18:03:45 10° 199° (SSW) 2,609 6.7 -10.4°
Maximum altitude 18:09:45 64° 119° (ESE) 1,020 3.9 -11.4°
Drops below altitude 10° 18:15:49 10° 39° (NE) 2,646 5.8 -12.5°
Enters shadow 18:16:05 - 39° (NE) 2,746 5.9 -12.6°
